EW1587 Weather Reports


time (UTC)temp
F
wind
direction
speed
knots
gust
knots
rain 1hr
in
rain 24hr
in
rain mn
in
humidity
%
barometer
mb
20260831050558 73 238 0.9 6.1 0.00 0.00 0.00 92 1006.5
20260831050508 73 255 0.9 6.1 0.00 0.00 0.00 92 1006.5
20260831050122 73 270 0.9 6.1 0.00 0.00 0.00 92 1006.6
20260831045557 73 240 0.9 7.8 0.00 0.00 0.00 92 1006.7
20260831045058 73 243 1.7 7.8 0.00 0.00 0.00 92 1006.8
20260831044604 73 210 2.6 5.2 0.00 0.00 0.00 92 1006.9
20260831044056 73 224 0.9 6.1 0.00 0.00 0.00 91 1007.1
20260831043556 73 176 1.7 6.1 0.00 0.00 0.00 91 1007.2
20260831043056 73 190 1.7 6.1 0.00 0.00 0.00 91 1007.2
20260831042555 74 298 0.9 5.2 0.00 0.00 0.00 91 1007.3
20260831032049 75 182 2.6 8.7 0.00 0.00 0.00 88 1007.0
20260831031549 75 165 2.6 7.8 0.00 0.00 0.00 88 1007.0
20260831025043 76 132 1.7 7.0 0.00 0.00 0.00 87 1006.8
20260831024538 76 214 2.6 7.8 0.00 0.00 0.00 86 1006.7
20260831024030 76 156 2.6 7.8 0.00 0.00 0.00 86 1006.6
20260831023530 76 250 0.9 7.0 0.00 0.00 0.00 86 1006.6
20260831023032 76 127 1.7 7.0 0.00 0.00 0.00 86 1006.6
20260831022529 76 231 0.9 4.3 0.00 0.00 0.00 85 1006.6
20260831022029 77 165 1.7 6.1 0.00 0.00 0.00 86 1006.7
20260831021538 77 180 1.7 6.1 0.00 0.00 0.00 86 1006.6
20260831021029 77 153 0.9 5.2 0.00 0.00 0.00 86 1006.8
20260831020533 77 228 1.7 5.2 0.00 0.00 0.00 86 1006.8
20260831020032 77 152 0.9 5.2 0.00 0.00 0.00 87 1006.7
20260831015532 77 183 0.9 5.2 0.00 0.00 0.00 87 1006.8
20260831015028 77 236 0.0 5.2 0.00 0.00 0.00 87 1006.7
20260831014528 77 143 0.9 5.2 0.00 0.00 0.00 87 1006.7
20260831014030 78 214 0.0 3.5 0.00 0.00 0.00 86 1006.7
20260831013528 78 166 0.0 3.5 0.00 0.00 0.00 86 1006.6
20260831013028 78 109 0.0 3.5 0.00 0.00 0.00 85 1006.6
20260831012528 78 194 0.0 2.6 0.00 0.00 0.00 85 1006.6
20260831012027 78 95 0.0 2.6 0.00 0.00 0.00 85 1006.5
20260831011542 79 90 0.0 2.6 0.00 0.00 0.00 84 1006.4
20260831011027 79 100 0.0 0.9 0.00 0.00 0.00 83 1006.4
20260831010527 79 82 0.0 2.6 0.00 0.00 0.00 83 1006.5
20260831010029 79 85 0.0 3.5 0.00 0.00 0.00 83 1006.4
20260831005527 79 72 0.0 3.5 0.00 0.00 0.00 82 1006.3
20260831005027 80 86 0.9 3.5 0.00 0.00 0.00 82 1006.3
20260831004526 80 103 0.9 4.3 0.00 0.00 0.00 82 1006.3
20260831004026 80 100 0.9 4.3 0.00 0.00 0.00 81 1006.4
20260831001020 81 98 1.7 4.3 0.00 0.00 0.00 78 1006.4
20260831000519 82 83 1.7 6.1 0.00 0.00 0.00 78 1006.4
20260831000019 82 94 1.7 6.1 0.00 0.00 0.00 77 1006.3
20260830235518 82 93 2.6 6.1 0.00 0.00 0.00 77 1006.3
20260830235018 82 99 0.9 5.2 0.00 0.00 0.00 77 1006.3
20260830234518 82 106 1.7 5.2 0.00 0.00 0.00 77 1006.3
20260830234021 82 93 1.7 7.0 0.00 0.00 0.00 76 1006.3
20260830233517 82 114 2.6 8.7 0.00 0.00 0.00 76 1006.2
20260830233022 82 93 2.6 6.1 0.00 0.00 0.00 76 1006.1
20260830232516 83 95 0.9 10.4 0.00 0.00 0.00 75 1006.2
20260830232015 83 250 2.6 10.4 0.00 0.00 0.00 75 1006.2
20260830231516 83 84 1.7 7.8 0.00 0.00 0.00 75 1006.2
20260830231018 83 87 3.5 7.8 0.00 0.00 0.00 74 1006.4
20260830230515 83 96 0.9 6.1 0.00 0.00 0.00 76 1006.5
20260830230015 83 77 0.0 6.1 0.00 0.00 0.00 75 1006.4
20260830225515 83 72 0.0 7.0 0.00 0.00 0.00 76 1006.3
20260830225014 83 96 1.7 7.0 0.00 0.00 0.00 75 1006.2
20260830224518 83 86 1.7 6.1 0.00 0.00 0.00 73 1006.3
20260830224013 83 71 0.9 6.1 0.00 0.00 0.00 74 1006.3
20260830223513 83 124 1.7 5.2 0.00 0.00 0.00 74 1006.3
20260830223012 83 119 0.9 7.0 0.00 0.00 0.00 75 1006.2
20260830222511 83 316 1.7 7.0 0.00 0.00 0.00 75 1006.2
20260830222009 83 103 0.9 5.2 0.00 0.00 0.00 76 1006.3
20260830221509 83 104 0.9 7.0 0.00 0.00 0.00 76 1006.3
20260830221009 83 122 2.6 7.0 0.00 0.00 0.00 76 1006.3
20260830220508 83 132 1.7 6.1 0.00 0.00 0.00 76 1006.3
20260830220007 82 357 0.9 7.8 0.00 0.00 0.00 77 1006.4
20260830215507 82 153 2.6 7.8 0.00 0.00 0.00 76 1006.5
20260830215004 82 75 0.9 7.8 0.00 0.00 0.00 78 1006.6
20260830214504 82 86 1.7 11.3 0.00 0.00 0.00 78 1006.6
20260830214003 82 115 3.5 11.3 0.00 0.00 0.00 77 1006.7
20260830213503 82 47 3.5 6.1 0.00 0.00 0.00 77 1006.7
20260830213005 82 106 0.9 7.0 0.00 0.00 0.00 79 1006.6
20260830212500 81 98 1.7 9.6 0.00 0.00 0.00 79 1006.6
20260830212101 81 89 5.2 9.6 0.00 0.00 0.00 78 1006.7
20260830211603 81 79 0.9 8.7 0.00 0.00 0.00 79 1006.8
20260830211057 81 106 3.5 8.7 0.00 0.00 0.00 79 1006.8
20260830210558 81 93 2.6 7.8 0.00 0.00 0.00 81 1006.9
20260830210056 80 99 3.5 10.4 0.00 0.00 0.00 79 1007.0
20260830205556 81 86 3.5 10.4 0.00 0.00 0.00 80 1007.2
20260830205055 80 122 5.2 12.2 0.00 0.00 0.00 79 1007.1
20260830204555 80 79 5.2 12.2 0.00 0.00 0.00 79 1007.1
20260830204055 81 93 2.6 9.6 0.00 0.00 0.00 79 1007.3
20260830203553 81 117 5.2 10.4 0.00 0.00 0.00 80 1007.2
20260830203052 80 95 3.5 8.7 0.00 0.00 0.00 79 1007.2
20260830202554 80 115 2.6 7.0 0.00 0.00 0.00 81 1007.2
20260830202048 79 136 1.7 10.4 0.00 0.00 0.00 82 1007.0
20260830201549 79 123 4.3 10.4 0.00 0.00 0.00 81 1007.1
20260830201047 79 174 1.7 10.4 0.00 0.00 0.00 84 1007.3
20260830200546 78 105 6.1 10.4 0.00 0.00 0.00 82 1007.2
20260830200046 78 70 5.2 7.8 0.00 0.00 0.00 82 1007.1
20260830195548 78 107 3.5 8.7 0.00 0.00 0.00 82 1007.0
20260830195046 78 103 5.2 10.4 0.00 0.00 0.00 84 1007.0
20260830194557 77 104 7.0 11.3 0.00 0.00 0.00 83 1007.2
20260830194044 77 58 6.1 11.3 0.00 0.00 0.00 83 1007.1
20260830193543 78 99 6.1 11.3 0.00 0.00 0.00 83 1007.2
20260830193054 78 115 6.1 12.2 0.00 0.00 0.00 84 1007.2
20260830192540 77 126 6.1 12.2 0.00 0.00 0.00 85 1007.3
20260830192043 77 94 7.8 12.2 0.00 0.00 0.00 84 1007.4
20260830191539 77 98 5.2 11.3 0.00 0.00 0.00 85 1007.5
20260830191038 77 96 5.2 10.4 0.00 0.00 0.00 84 1007.5
20260830190538 77 103 7.0 11.3 0.00 0.00 0.00 84 1007.7
20260830190037 77 117 5.2 11.3 0.00 0.00 0.00 85 1007.9
20260830185537 77 82 5.2 10.4 0.00 0.00 0.00 85 1007.9
20260830185037 77 94 4.3 8.7 0.00 0.00 0.00 85 1007.9
20260830184536 76 115 3.5 8.7 0.00 0.00 0.00 87 1008.0
20260830184034 76 86 5.2 11.3 0.00 0.00 0.00 86 1008.3
20260830183537 76 155 6.1 11.3 0.00 0.00 0.00 86 1008.4
20260830183034 76 112 3.5 7.8 0.00 0.00 0.00 88 1008.5
20260830182532 75 132 0.9 6.1 0.00 0.00 0.00 89 1008.7
20260830182030 74 90 0.0 6.1 0.00 0.00 0.00 91 1008.8
20260830181529 73 113 1.7 7.0 0.00 0.00 0.00 90 1008.8
20260830181032 73 92 1.7 7.0 0.00 0.00 0.00 90 1008.9
20260830180525 73 75 2.6 7.8 0.00 0.00 0.00 90 1009.0
20260830180025 73 110 3.5 8.7 0.00 0.00 0.00 90 1008.7
20260830175523 73 77 3.5 8.7 0.00 0.00 0.00 90 1008.7
20260830175022 73 132 3.5 10.4 0.00 0.00 0.00 90 1008.6
20260830174522 73 91 3.5 10.4 0.00 0.00 0.00 91 1008.6
20260830174018 72 86 4.3 7.8 0.00 0.00 0.00 91 1008.7
20260830173516 72 121 3.5 7.0 0.00 0.00 0.00 92 1008.6
20260830173015 72 113 0.9 6.1 0.00 0.00 0.00 93 1008.6
20260830172515 71 97 2.6 7.0 0.00 0.00 0.00 93 1008.7
20260830172018 71 89 3.5 7.0 0.00 0.00 0.00 93 1008.7
20260830171513 71 115 3.5 7.0 0.00 0.00 0.00 93 1008.7
20260830171012 71 117 2.6 6.1 0.00 0.00 0.00 93 1008.8
20260830170513 71 84 2.6 5.2 0.00 0.00 0.00 93 1008.9
20260830170015 71 111 3.5 7.0 0.00 0.00 0.00 93 1008.9
20260830165511 71 103 3.5 11.3 0.00 0.00 0.00 93 1008.9
20260830165014 70 110 4.3 11.3 0.00 0.00 0.00 93 1008.8
20260830164510 70 67 5.2 12.2 0.00 0.00 0.00 93 1008.8
20260830164010 70 111 3.5 8.7 0.00 0.00 0.00 93 1008.7
20260830163510 70 81 5.2 8.7 0.00 0.00 0.00 93 1008.7
20260830163009 70 89 5.2 8.7 0.00 0.00 0.00 93 1008.6
20260830162514 70 117 4.3 7.8 0.00 0.00 0.00 94 1008.5
20260830162012 70 65 5.2 7.8 0.00 0.00 0.00 93 1008.4
20260830161507 70 117 4.3 7.8 0.00 0.00 0.00 94 1008.4
20260830161007 70 90 6.1 8.7 0.00 0.00 0.00 94 1008.5
20260830160507 70 84 6.1 8.7 0.00 0.00 0.00 94 1008.5
20260830160006 70 140 5.2 8.7 0.00 0.00 0.00 94 1008.5
20260830155506 70 98 4.3 11.3 0.00 0.00 0.00 94 1008.5
20260830155005 70 69 5.2 11.3 0.00 0.00 0.00 95 1008.2
20260830154504 69 117 5.2 7.8 0.00 0.00 0.00 95 1008.3
20260830154003 69 85 3.5 7.8 0.00 0.00 0.00 96 1008.3
20260830153501 69 98 4.3 7.8 0.00 0.00 0.00 96 1008.5
20260830153001 69 90 4.3 7.8 0.00 0.00 0.00 96 1008.3
20260830152503 69 20 6.1 7.8 0.00 0.00 0.00 97 1008.4
20260830152100 68 101 4.3 9.6 0.00 0.00 0.00 97 1008.4
20260830151610 68 79 3.5 9.6 0.00 0.00 0.00 96 1008.4
20260830151059 68 76 3.5 7.0 0.00 0.00 0.00 97 1008.6
20260830150601 68 86 3.5 7.0 0.00 0.00 0.00 97 1008.6
20260830150104 68 147 3.5 8.7 0.00 0.00 0.00 97 1008.6
20260830145600 68 79 4.3 8.7 0.00 0.00 0.00 97 1008.5
20260830145058 68 58 3.5 7.0 0.00 0.00 0.00 98 1008.3
20260830144556 67 64 4.3 7.0 0.00 0.00 0.00 98 1008.3
20260830144055 67 61 4.3 7.0 0.00 0.00 0.00 98 1008.4
20260830143555 67 82 2.6 7.0 0.00 0.00 0.00 99 1008.7
20260830143058 67 110 3.5 7.8 0.00 0.00 0.00 99 1008.8
20260830142555 67 67 2.6 7.8 0.00 0.00 0.00 99 1008.7
20260830142058 66 81 4.3 7.0 0.00 0.00 0.00 99 1008.5
20260830141555 66 81 4.3 6.1 0.00 0.00 0.00 99 1008.6
20260830141108 66 118 3.5 7.0 0.00 0.00 0.00 99 1008.7
20260830140553 66 101 2.6 5.2 0.00 0.00 0.00 100 1008.9
20260830140053 66 92 0.0 4.3 0.00 0.00 0.00 100 1009.0
20260830140023 66 113 0.9 4.3 0.00 0.00 0.00 100 1009.0
20260830135555 66 132 0.9 4.3 0.00 0.00 0.00 100 1008.9
20260830135053 66 121 2.6 7.0 0.00 0.00 0.00 100 1008.8
20260830134552 66 103 2.6 8.7 0.00 0.00 0.00 100 1008.8
20260830134055 66 94 2.6 8.7 0.00 0.00 0.00 100 1008.7
20260830133551 66 77 2.6 7.0 0.00 0.00 0.00 100 1008.6
20260830133056 66 87 3.5 6.1 0.00 0.00 0.00 100 1008.6
20260830132550 65 107 3.5 6.1 0.00 0.00 0.00 100 1008.7
20260830132054 65 81 2.6 7.0 0.00 0.00 0.00 100 1008.6
20260830131554 65 92 2.6 5.2 0.00 0.00 0.00 100 1008.6
20260830131052 65 87 3.5 5.2 0.00 0.00 0.00 100 1008.6
20260830130549 65 40 2.6 6.1 0.00 0.00 0.00 100 1008.6
20260830130057 65 98 3.5 6.1 0.00 0.00 0.00 100 1008.4
20260830130022 65 68 3.5 6.1 0.00 0.00 0.00 100 1008.4
20260830125549 65 106 3.5 7.0 0.00 0.00 0.00 100 1008.4
20260830125052 65 73 3.5 7.0 0.00 0.00 0.00 100 1008.2
20260830124046 65 163 2.6 6.1 0.00 0.00 0.00 100 1008.6
20260830123544 65 111 3.5 5.2 0.00 0.00 0.00 100 1008.5
20260830123043 65 110 2.6 6.1 0.00 0.00 0.00 100 1008.4
20260830122545 65 81 4.3 6.1 0.00 0.00 0.00 100 1008.1
20260830122042 65 66 3.5 5.2 0.00 0.00 0.00 100 1008.1
20260830121541 65 110 3.5 6.1 0.00 0.00 0.00 100 1008.1
20260830121044 65 85 3.5 6.1 0.00 0.00 0.00 100 1008.1
20260830120539 65 71 3.5 5.2 0.00 0.00 0.00 100 1008.1
20260830120044 65 96 2.6 5.2 0.00 0.00 0.00 100 1008.2
20260830115538 65 81 1.7 5.2 0.00 0.05 0.00 100 1008.5
20260830115038 65 77 0.9 1.7 0.00 0.05 0.00 100 1008.5
20260830114548 65 117 0.0 3.5 0.00 0.05 0.00 100 1008.5
20260830114036 65 81 0.0 5.2 0.00 0.05 0.00 100 1008.1
20260830113534 65 88 2.6 5.2 0.00 0.05 0.00 100 1007.6
20260830113034 65 77 3.5 6.1 0.00 0.05 0.00 100 1007.5
20260830112533 65 84 3.5 7.0 0.00 0.05 0.00 100 1007.7
20260830112033 65 87 2.6 6.1 0.00 0.05 0.00 100 1007.9
20260830111532 65 94 1.7 6.1 0.00 0.05 0.00 100 1007.8
20260830111032 65 83 1.7 4.3 0.00 0.05 0.00 100 1007.8
20260830110531 65 138 2.6 4.3 0.00 0.05 0.00 100 1007.9
20260830110033 65 70 2.6 4.3 0.00 0.05 0.00 100 1008.1
20260830105530 65 96 0.9 3.5 0.00 0.17 0.00 100 1008.2
20260830105030 65 81 0.9 3.5 0.00 0.17 0.00 100 1008.5
20260830104630 65 114 0.0 2.6 0.00 0.17 0.00 100 1008.5
20260830104029 65 73 0.0 4.3 0.00 0.17 0.00 100 1008.6
20260830103529 65 107 1.7 4.3 0.00 0.17 0.00 100 1008.2
20260830103028 65 89 1.7 2.6 0.00 0.17 0.00 100 1008.3
20260830102531 65 92 1.7 2.6 0.00 0.17 0.00 100 1008.3
20260830102028 65 68 0.9 3.5 0.00 0.17 0.00 100 1008.3
20260830101526 65 56 1.7 3.5 0.00 0.17 0.00 100 1008.3
20260830101027 65 81 0.9 3.5 0.00 0.17 0.00 100 1008.3
20260830100527 65 105 1.7 3.5 0.00 0.17 0.00 100 1008.3
20260830100031 65 71 0.0 3.5 0.00 0.22 0.00 100 1008.4
20260830095527 65 79 0.9 2.6 0.00 0.22 0.00 100 1008.3
20260830095027 65 88 0.9 2.6 0.00 0.22 0.00 100 1008.2
20260830094526 65 101 0.0 2.6 0.00 0.22 0.00 100 1008.3
20260830094025 65 120 0.9 2.6 0.00 0.22 0.00 100 1008.2
20260830093525 65 96 0.9 1.7 0.00 0.22 0.00 100 1008.3
20260830093027 65 104 0.0 2.6 0.00 0.22 0.00 100 1008.2
20260830092525 65 65 0.9 2.6 0.00 0.22 0.00 100 1008.2
20260830092028 65 91 0.9 2.6 0.00 0.22 0.00 100 1007.9
20260830091535 65 82 0.0 4.3 0.00 0.22 0.00 100 1007.8
20260830091024 65 94 1.7 4.3 0.00 0.22 0.00 100 1007.7
20260830090524 65 86 3.5 5.2 0.00 0.22 0.00 100 1007.7
20260830090024 65 117 2.6 5.2 0.00 0.23 0.00 100 1007.7
20260830085525 65 70 1.7 3.5 0.00 0.23 0.00 100 1007.8
20260830085022 65 94 0.9 3.5 0.00 0.23 0.00 100 1008.1
20260830084537 65 98 0.9 4.3 0.00 0.23 0.00 100 1008.1
20260830084021 65 117 1.7 4.3 0.00 0.23 0.00 100 1008.1
20260830083523 65 75 2.6 5.2 0.00 0.23 0.00 100 1008.1
20260830083021 65 91 2.6 4.3 0.00 0.23 0.00 100 1008.1
20260830082519 65 105 2.6 4.3 0.00 0.23 0.00 100 1008.1
20260830082019 65 83 1.7 3.5 0.00 0.23 0.00 100 1008.3
20260830081519 65 88 1.7 3.5 0.00 0.23 0.00 100 1008.2
20260830081021 65 108 1.7 4.3 0.00 0.23 0.00 100 1008.2
20260830080520 65 107 1.7 4.3 0.00 0.23 0.00 100 1008.2
20260830080019 65 79 1.7 3.5 0.00 0.23 0.00 99 1008.1
20260830075516 65 77 1.7 3.5 0.00 0.23 0.00 99 1008.2
20260830075015 65 92 1.7 4.3 0.00 0.23 0.00 99 1008.3
20260830074516 65 82 2.6 4.3 0.00 0.23 0.00 99 1008.4
20260830074014 66 72 1.7 4.3 0.00 0.23 0.00 99 1008.6
20260830073513 66 81 0.9 3.5 0.00 0.23 0.00 99 1008.5
20260830073013 66 91 0.9 3.5 0.00 0.23 0.00 99 1008.6
20260830072513 66 72 1.7 5.2 0.00 0.23 0.00 99 1008.6
20260830072013 66 75 1.7 3.5 0.00 0.23 0.00 99 1008.5
20260830071512 66 94 1.7 3.5 0.00 0.23 0.00 99 1008.5
20260830071011 66 78 1.7 2.6 0.00 0.23 0.00 99 1008.6
20260830070511 66 91 1.7 2.6 0.00 0.23 0.00 99 1008.7
20260830070010 66 90 0.0 2.6 0.00 0.23 0.00 99 1008.7
20260830065514 66 84 0.9 3.5 0.00 0.23 0.00 99 1008.8
20260830065010 66 87 0.0 4.3 0.00 0.23 0.00 99 1008.7
20260830064510 66 88 2.6 6.1 0.00 0.23 0.00 99 1008.5
20260830064010 66 95 2.6 6.1 0.00 0.23 0.00 99 1008.5
20260830063509 66 87 1.7 3.5 0.00 0.23 0.00 98 1008.7
20260830063008 66 88 1.7 4.3 0.00 0.23 0.00 98 1008.7
20260830062508 66 89 1.7 3.5 0.00 0.23 0.00 98 1008.7
20260830062010 66 103 1.7 3.5 0.00 0.23 0.00 98 1008.7
20260830061506 66 91 1.7 3.5 0.00 0.23 0.00 98 1008.7
20260830061005 67 91 2.6 4.3 0.00 0.23 0.00 98 1008.7
20260830060507 67 89 2.6 4.3 0.00 0.23 0.00 98 1008.7
20260830060004 67 102 2.6 5.2 0.00 0.23 0.00 98 1008.7
20260830055504 67 89 2.6 4.3 0.00 0.23 0.00 98 1008.8
20260830055003 67 114 2.6 3.5 0.00 0.23 0.00 98 1008.8
20260830054502 67 83 1.7 4.3 0.00 0.23 0.00 98 1008.9
20260830054002 67 89 1.7 3.5 0.00 0.23 0.00 98 1008.9
20260830053501 67 76 1.7 3.5 0.00 0.23 0.00 98 1008.9
20260830053100 67 102 1.7 3.5 0.00 0.23 0.00 97 1009.0
20260830053000 67 84 1.7 3.5 0.00 0.23 0.00 97 1009.0
20260830052600 67 90 0.9 3.5 0.00 0.23 0.00 97 1009.0
20260830052101 67 82 1.7 3.5 0.00 0.23 0.00 97 1009.0
20260830051600 67 99 1.7 4.3 0.00 0.23 0.00 97 1009.0
20260830051059 67 77 1.7 4.3 0.00 0.23 0.00 97 1009.0